Simultaneous Nadir Overpasses (SNOs) Predictions

Prediction of SNOs between METOP-C and LANDSAT-8 Satellite Orbit:

Table of predicted SNOs for the next 14.0 days since TLE Epoch: 4/3/2021
Index Date (METOP-C) Time (METOP-C) Lat,Lon (METOP-C) SZA (METOP-C ) Date (LANDSAT-8) Time (LANDSAT-8) Lat,Lon (LANDSAT-8) SZA (LANDSAT-8 ) Distance(km) Time Diff (sec)
1 04/04/2021 01:26:15 -81.07, 17.03 102.77 04/04/2021 01:26:35 -81.08, 17.11 102.76 1.38 20
2 04/04/2021 02:16:54 81.11,-174.79 77.33 04/04/2021 02:16:00 81.11,-174.81 77.30 0.34 54
3 04/06/2021 21:00:37 -81.08, 83.66 103.79 04/06/2021 21:00:49 -81.09, 83.68 103.78 0.28 12
4 04/06/2021 21:51:16 81.12,-108.14 76.31 04/06/2021 21:50:14 81.11,-108.27 76.27 2.22 62
5 04/09/2021 16:34:59 -81.09, 150.28 104.79 04/09/2021 16:35:03 -81.09, 150.21 104.79 1.30 4
6 04/09/2021 17:25:39 81.11, -41.89 75.27 04/09/2021 17:24:28 81.12, -41.76 75.26 2.26 71
7 04/12/2021 11:18:42 81.07, 48.73 74.14 04/12/2021 11:19:50 81.07, 48.69 74.16 0.69 68
8 04/12/2021 12:09:20 -81.10,-143.10 105.77 04/12/2021 12:09:16 -81.10,-143.29 105.79 3.23 4
9 04/15/2021 06:53:04 81.08, 115.32 73.17 04/15/2021 06:54:04 81.07, 115.13 73.17 3.30 60



Historial Predications of SNOs between METOP-C and LANDSAT-8
